| time (UTC) | temp F | wind direction | speed MPH | gust MPH | rain 1hr in | rain 24hr in | rain mn in | humidity % | barometer mb |
| 20260906000403 | 75 | 208 | 0.0 | 0.0 | 0.00 | 0.01 | 0.00 | 76 | 1016.7 |
| 20260905235823 | 77 | 208 | 0.0 | 1.0 | 0.00 | 0.01 | 0.00 | 74 | 1016.7 |
| 20260905235349 | 78 | 208 | 0.0 | 1.0 | 0.00 | 0.01 | 0.00 | 72 | 1016.6 |
| 20260905234351 | 79 | 301 | 0.0 | 0.0 | 0.00 | 0.01 | 0.00 | 70 | 1016.5 |
| 20260905233853 | 79 | 302 | 0.0 | 0.0 | 0.00 | 0.01 | 0.00 | 71 | 1016.5 |
| 20260905233416 | 78 | 302 | 0.0 | 0.0 | 0.00 | 0.01 | 0.00 | 71 | 1016.5 |
| 20260905232919 | 78 | 301 | 0.0 | 0.0 | 0.00 | 0.01 | 0.00 | 71 | 1016.6 |
| 20260905232342 | 78 | 302 | 0.0 | 1.0 | 0.00 | 0.01 | 0.00 | 71 | 1016.5 |
| 20260905231911 | 78 | 302 | 0.0 | 1.0 | 0.00 | 0.01 | 0.00 | 70 | 1016.6 |
| 20260905231335 | 78 | 79 | 0.0 | 1.0 | 0.00 | 0.01 | 0.00 | 70 | 1016.7 |
| 20260905230905 | 78 | 78 | 0.0 | 1.0 | 0.00 | 0.01 | 0.00 | 70 | 1016.5 |
| 20260905230430 | 78 | 78 | 0.0 | 2.0 | 0.00 | 0.01 | 0.00 | 69 | 1016.5 |
| 20260905225828 | 79 | 213 | 0.0 | 0.0 | 0.00 | 0.01 | 0.00 | 68 | 1016.5 |
| 20260905225349 | 81 | 213 | 0.0 | 0.0 | 0.00 | 0.01 | 0.00 | 65 | 1016.5 |
| 20260905224914 | 81 | 213 | 0.0 | 0.0 | 0.00 | 0.01 | 0.00 | 66 | 1016.5 |
| 20260905224330 | 80 | 213 | 0.0 | 0.0 | 0.00 | 0.01 | 0.00 | 69 | 1016.6 |
| 20260905223859 | 79 | 213 | 0.0 | 0.0 | 0.00 | 0.01 | 0.00 | 67 | 1016.7 |
| 20260905223418 | 78 | 213 | 0.0 | 0.0 | 0.00 | 0.01 | 0.00 | 70 | 1016.7 |
| 20260905222841 | 76 | 213 | 0.0 | 0.0 | 0.00 | 0.01 | 0.00 | 75 | 1016.7 |
| 20260905222410 | 76 | 213 | 0.0 | 0.0 | 0.00 | 0.01 | 0.00 | 75 | 1016.7 |
| 20260905221832 | 77 | 212 | 0.0 | 0.0 | 0.00 | 0.01 | 0.00 | 73 | 1016.8 |
| 20260905221356 | 77 | 213 | 0.0 | 0.0 | 0.00 | 0.01 | 0.00 | 72 | 1016.8 |
| 20260905220916 | 78 | 213 | 0.0 | 0.0 | 0.00 | 0.01 | 0.00 | 71 | 1016.7 |
| 20260905220343 | 78 | 213 | 0.0 | 1.0 | 0.00 | 0.02 | 0.00 | 68 | 1016.7 |
| 20260905215911 | 78 | 213 | 0.0 | 1.0 | 0.00 | 0.02 | 0.00 | 69 | 1016.7 |
| 20260905215329 | 78 | 213 | 0.0 | 1.0 | 0.00 | 0.02 | 0.00 | 69 | 1016.7 |
| 20260905214853 | 78 | 146 | 0.0 | 1.0 | 0.00 | 0.02 | 0.00 | 65 | 1016.6 |
| 20260905214401 | 78 | 147 | 0.0 | 1.0 | 0.00 | 0.02 | 0.00 | 68 | 1016.6 |
| 20260905213329 | 76 | 215 | 0.0 | 0.0 | 0.00 | 0.02 | 0.00 | 75 | 1016.6 |
| 20260905212854 | 76 | 215 | 0.0 | 0.0 | 0.00 | 0.02 | 0.00 | 79 | 1016.6 |
| 20260905212401 | 76 | 335 | 0.0 | 0.0 | 0.00 | 0.02 | 0.00 | 76 | 1016.6 |
| 20260905211910 | 76 | 52 | 0.0 | 0.0 | 0.00 | 0.02 | 0.00 | 74 | 1016.5 |
| 20260905211327 | 76 | 52 | 0.0 | 1.0 | 0.00 | 0.02 | 0.00 | 73 | 1016.5 |
| 20260905210849 | 76 | 52 | 0.0 | 1.0 | 0.00 | 0.02 | 0.00 | 73 | 1016.6 |
| 20260905210417 | 76 | 52 | 0.0 | 0.0 | 0.00 | 0.02 | 0.00 | 70 | 1016.6 |
| 20260905205841 | 77 | 52 | 0.0 | 0.0 | 0.00 | 0.02 | 0.00 | 70 | 1016.7 |
| 20260905205351 | 77 | 52 | 0.0 | 1.0 | 0.00 | 0.02 | 0.00 | 68 | 1016.7 |
| 20260905020348 | 66 | 298 | 0.0 | 1.0 | 0.00 | 0.48 | 0.38 | 98 | 1014.4 |
| 20260905015841 | 66 | 124 | 0.0 | 2.0 | 0.00 | 0.48 | 0.38 | 98 | 1014.2 |
| 20260905015403 | 66 | 97 | 0.0 | 5.0 | 0.00 | 0.48 | 0.38 | 98 | 1014.3 |
| 20260905014847 | 66 | 321 | 2.0 | 5.0 | 0.00 | 0.48 | 0.38 | 98 | 1014.5 |
| 20260905014331 | 66 | 20 | 0.0 | 4.0 | 0.00 | 0.48 | 0.38 | 98 | 1014.5 |
| 20260905013912 | 66 | 315 | 1.0 | 4.0 | 0.00 | 0.48 | 0.38 | 97 | 1014.4 |
| 20260905013356 | 66 | 314 | 1.0 | 3.0 | 0.00 | 0.48 | 0.38 | 97 | 1014.3 |
| 20260905012840 | 66 | 326 | 0.0 | 2.0 | 0.00 | 0.48 | 0.38 | 97 | 1014.3 |
| 20260905012404 | 66 | 42 | 0.0 | 3.0 | 0.00 | 0.48 | 0.38 | 97 | 1014.5 |
| 20260905011832 | 66 | 305 | 0.0 | 3.0 | 0.00 | 0.48 | 0.38 | 97 | 1014.4 |
| 20260905011355 | 66 | 319 | 0.0 | 4.0 | 0.00 | 0.48 | 0.38 | 97 | 1014.2 |
| 20260905010837 | 66 | 21 | 1.0 | 4.0 | 0.00 | 0.48 | 0.38 | 97 | 1014.2 |
| 20260905010401 | 66 | 319 | 0.0 | 2.0 | 0.00 | 0.48 | 0.38 | 97 | 1014.1 |
| 20260905005905 | 66 | 328 | 0.0 | 1.0 | 0.00 | 0.48 | 0.38 | 97 | 1014.1 |
| 20260905005350 | 66 | 305 | 0.0 | 2.0 | 0.00 | 0.48 | 0.38 | 97 | 1014.2 |
| 20260905004829 | 66 | 241 | 0.0 | 2.0 | 0.00 | 0.48 | 0.38 | 97 | 1014.1 |
| 20260905004412 | 66 | 272 | 0.0 | 3.0 | 0.00 | 0.48 | 0.38 | 97 | 1014.1 |
| 20260905003854 | 67 | 305 | 0.0 | 8.0 | 0.00 | 0.48 | 0.38 | 97 | 1014.1 |
| 20260905003340 | 67 | 13 | 2.0 | 8.0 | 0.00 | 0.48 | 0.38 | 97 | 1014.1 |
| 20260905002922 | 67 | 324 | 1.0 | 3.0 | 0.00 | 0.48 | 0.38 | 97 | 1013.9 |
| 20260905002326 | 67 | 286 | 0.0 | 2.0 | 0.00 | 0.48 | 0.38 | 97 | 1013.9 |
| 20260905001906 | 67 | 311 | 1.0 | 3.0 | 0.00 | 0.48 | 0.38 | 97 | 1013.9 |
| 20260905001350 | 67 | 314 | 0.0 | 4.0 | 0.00 | 0.48 | 0.38 | 97 | 1013.9 |
| 20260905000914 | 67 | 350 | 0.0 | 2.0 | 0.00 | 0.48 | 0.38 | 97 | 1014.0 |